Location: Unspecified
(40.3194°N, 0.0000°E)
Time: 00:17:22
(UTC+00:00)

Cosmos 2251 Rocket - Visible Passes

Search period start: 04 April 2026 00:00
Search period end: 14 April 2026 00:00
Orbit: 762 x 787 km, 74.0° (Epoch: 29 March)

Date Brightness Start Highest point End Pass type
(mag) Time Alt. Az. Time Alt. Az. Time Alt. Az.
4 Apr 5.7 02:00:31 10° NNW 02:02:05 20° N 02:02:05 20° N visible
5 Apr 5.9 01:25:29 10° N 01:27:03 18° N 01:27:03 18° N visible
6 Apr 6.1 00:50:41 10° N 00:52:05 16° NNE 00:52:05 16° NNE visible
6 Apr 6.1 02:32:21 10° NNW 02:32:27 11° NNW 02:32:27 11° NNW visible
7 Apr 6.3 00:16:15 10° NNE 00:17:10 13° NNE 00:17:10 13° NNE visible
7 Apr 6.0 01:56:53 10° NNW 01:57:32 14° NNW 01:57:32 14° NNW visible
8 Apr 6.0 01:21:37 10° NNW 01:22:40 16° NNW 01:22:40 16° NNW visible
9 Apr 6.0 00:46:33 10° N 00:47:50 17° N 00:47:50 17° N visible
10 Apr 6.1 00:11:40 10° N 00:13:01 16° NNE 00:13:01 16° NNE visible
10 Apr 6.2 23:37:07 10° NNE 23:38:13 13° NNE 23:38:13 13° NNE visible
11 Apr 6.1 01:18:02 10° NNW 01:18:36 13° NNW 01:18:36 13° NNW visible
12 Apr 6.0 00:42:44 10° NNW 00:43:50 17° NNW 00:43:50 17° NNW visible
13 Apr 5.9 00:07:36 10° N 00:09:06 19° N 00:09:06 19° N visible
13 Apr 5.9 23:32:40 10° N 23:34:22 18° NNE 23:34:22 18° NNE visible
